EW4238 Weather Reports


time (UTC)temp
F
wind
direction
speed
knots
gust
knots
rain 1hr
in
rain 24hr
in
rain mn
in
humidity
%
barometer
mb
20260503053027 47 125 0.0 2.6 0.00 0.00 0.00 71 1013.0
20260503051527 47 145 1.7 3.5 0.00 0.00 0.00 71 1013.0
20260503044523 47 116 1.7 3.5 0.00 0.00 0.00 71 1013.0
20260503043022 47 136 1.7 4.3 0.00 0.00 0.00 72 1013.0
20260503041527 48 139 1.7 3.5 0.00 0.00 0.00 72 1013.0
20260503034513 51 133 2.6 4.3 0.00 0.00 0.00 67 1013.1
20260503033008 52 149 1.7 3.5 0.00 0.00 0.00 63 1013.2
20260503031504 55 151 0.9 5.2 0.00 0.00 0.00 55 1013.0
20260503024600 61 185 3.5 9.6 0.00 0.00 0.00 42 1012.9
20260503023056 62 336 0.9 6.1 0.00 0.00 0.00 40 1012.8
20260503021553 63 13 0.0 0.0 0.00 0.00 0.00 37 1012.5
20260503014606 65 10 0.0 0.0 0.00 0.00 0.00 35 1012.2
20260503013049 65 349 0.0 0.9 0.00 0.00 0.00 35 1012.3
20260503011553 67 279 0.0 1.7 0.00 0.00 0.00 31 1012.3
20260503004547 67 143 0.0 2.6 0.00 0.00 0.00 34 1012.5
20260503003047 67 32 0.0 1.7 0.00 0.00 0.00 34 1012.6
20260503001555 66 345 0.0 2.6 0.00 0.00 0.00 35 1012.8
20260502234544 67 282 0.9 7.0 0.00 0.00 0.00 31 1013.0
20260502233045 68 2 1.7 5.2 0.00 0.00 0.00 32 1013.0
20260502231541 68 10 0.0 3.5 0.00 0.00 0.00 33 1013.1
20260502224539 68 322 4.3 10.4 0.00 0.00 0.00 30 1013.4
20260502223037 67 348 0.9 3.5 0.00 0.00 0.00 34 1013.6
20260502221540 68 210 0.9 3.5 0.00 0.00 0.00 32 1013.8
20260502214533 70 4 0.9 4.3 0.00 0.00 0.00 33 1014.2
20260502213030 68 41 2.6 6.1 0.00 0.00 0.00 35 1014.4
20260502211529 69 195 0.9 9.6 0.00 0.00 0.00 31 1014.5
20260502204528 71 338 2.6 7.0 0.00 0.00 0.00 32 1014.9
20260502203024 72 5 0.9 6.1 0.00 0.00 0.00 31 1015.0
20260502201523 74 353 3.5 9.6 0.00 0.00 0.00 29 1015.1
20260502194516 69 357 2.6 8.7 0.00 0.00 0.00 34 1015.4
20260502193012 65 7 0.0 4.3 0.00 0.00 0.00 40 1015.7
20260502191509 65 353 0.9 3.5 0.00 0.00 0.00 38 1016.1
20260502184510 63 12 0.0 3.5 0.00 0.00 0.00 39 1016.3
20260502183009 64 351 4.3 9.6 0.00 0.00 0.00 38 1016.3
20260502181503 65 353 1.7 7.0 0.00 0.00 0.00 36 1016.4
20260502163007 64 2 2.6 7.0 0.00 0.00 0.00 40 1016.7
20260502161501 62 40 3.5 10.4 0.00 0.00 0.00 41 1016.8
20260502151611 58 44 2.6 7.8 0.00 0.00 0.00 45 1016.8
20260502151501 58 333 0.9 2.6 0.00 0.00 0.00 44 1016.9
20260502150159 57 308 0.9 3.5 0.00 0.00 0.00 45 1016.7
20260502130151 48 345 0.9 2.6 0.00 0.00 0.00 55 1016.3
20260502123051 49 15 0.0 3.5 0.00 0.00 0.00 53 1016.2
20260502121553 49 18 0.0 2.6 0.00 0.00 0.00 52 1016.0
20260502120148 48 58 0.0 2.6 0.00 0.00 0.00 54 1015.9
20260502114551 47 50 0.0 2.6 0.00 0.00 0.00 55 1015.8
20260502113047 46 47 0.0 3.5 0.00 0.00 0.00 58 1015.8
20260502111549 45 2 0.0 2.6 0.00 0.00 0.00 54 1015.7
20260502110143 46 330 0.0 3.5 0.00 0.00 0.00 52 1015.6
20260502104539 47 324 1.7 2.6 0.00 0.00 0.00 52 1015.1
20260502103042 47 331 0.9 2.6 0.00 0.00 0.00 52 1014.8
20260502101544 46 45 0.0 2.6 0.00 0.00 0.00 53 1014.6
20260502100135 46 60 0.9 6.1 0.00 0.00 0.00 53 1014.4
20260502091532 49 353 0.0 1.7 0.00 0.00 0.00 46 1013.7
20260502090134 50 315 0.9 7.0 0.00 0.00 0.00 46 1013.6
20260502071517 48 337 2.6 6.1 0.00 0.00 0.00 45 1013.7
20260502070124 49 360 0.0 0.0 0.00 0.00 0.00 44 1013.6
20260502064515 49 359 0.0 0.9 0.00 0.00 0.00 43 1013.7
20260502063024 49 16 0.0 0.0 0.00 0.00 0.00 42 1013.5
20260502061512 50 16 0.0 0.0 0.00 0.00 0.00 41 1013.5
20260502060112 50 349 0.0 1.7 0.00 0.00 0.00 41 1013.4
20260502054510 50 328 0.0 2.6 0.00 0.00 0.00 41 1013.4